Weather in Hakuba

Japan     36°36′39″N   137°50′32″E
temp.,
°C
wind,
m/s
gust,
m/s
humid.,
%
clouds,
%
prec.,
mm/h
press.,
hPa
HPBL,
m
26 october, tue
tue2600:00+3ese1299100 4.8 1021137
03:00+3wsw0198100 12.3 101955
06:00+3nw119866 1.9 101755
09:00+7ne129280 2.0 1015421
12:00+7nne128882 0.1 1014514
15:00+8n128160 0.2 1014594
18:00+4nw119288 0.1 101854
21:00+2w22890 0.1 102017
27 october, wed
wed2700:00+1w227882 0.0 101914
03:00+2w32743 0.0 101920
06:00+2w227598 0.0 101918
09:00+8se116364 0.0 1017367
12:00+10se1355100 0.0 1015915
15:00+9wnw0263100 0.0 1015549
18:00+5w228598 0.0 101834
21:00+3w22824 0.0 102023
28 october, thu
thu2800:00+2w22830 0.0 102023
03:00+1w32751 0.0 102022
06:00+1w22620 0.0 102117
09:00+8ne12430 0.0 1018443
12:00+11ene22480 0.0 1017909
15:00+9ne227150 0.0 1017721
18:00+4nw229144 0.1 1022125
21:00+1wnw219139 0.1 102427
29 october, fri
fri2900:00−1wnw22774 0.0 102528
03:00−1wnw228716 0.0 102462
06:00−1wnw22817 0.0 102521
09:00+4ene23626 0.0 1023626
12:00+7ene32554 0.0 1021958
15:00+6e216421 0.0 1022670
18:00+1wsw21912 0.0 102616
21:000sw226144 0.0 102715
30 october, sat
sat3000:000wsw22433 0.0 102614
03:00+1w2146100 0.0 102614
06:000w215771 0.0 102811
09:00+7ese11464 0.0 1026404
12:00+11ese225088 0.0 1023751
15:00+10ese125762 0.0 1024584
18:00+4wsw228176 0.0 102725
21:00+2wsw2267100 0.0 102820